IGO1605 VOBL-WADD

Flight info

Callsign IGO1605
Flight time 6h 6m
Altitude 33000
Route TULNA8A TULNA W116 MMV P574 ANSAX L762 MOZES DCT TUNJA DCT SALAX A576 REKOP/N0458F350 A576 SJ B470 PKP L511 SBR DCT MOVMO
Aircraft A21N/M-SDE2E3FGHIRWXY/LB1

Departure

Time 2026-05-08 18:32
Airport Kempegowda International Airport Bengaluru (VOBL)

Arrival

Time 2026-05-09 00:39
Airport Denpasar I Gusti Ngurah Rai International Airport (WADD)
Time Latitude Longitude Altitude Speed Heading
2026-05-08 17:51 13.20103 77.71858 3012 ft 0 kts 179°
2026-05-08 18:19 13.20115 77.71857 3011 ft 2 kts 178°
2026-05-08 18:19 13.20131 77.71857 3014 ft 2 kts 179°
2026-05-08 18:19 13.20148 77.71856 3019 ft 2 kts 179°
2026-05-08 18:19 13.20165 77.71857 3017 ft 2 kts 209°
2026-05-08 18:20 13.20177 77.71868 3013 ft 2 kts 249°
2026-05-08 18:20 13.20181 77.71884 3014 ft 2 kts 265°
2026-05-08 18:20 13.20182 77.71891 3013 ft 1 kts 269°
2026-05-08 18:20 13.20182 77.71892 3013 ft 0 kts 269°
2026-05-08 18:21 13.20182 77.71891 3013 ft 0 kts 269°
2026-05-08 18:22 13.20182 77.71885 3013 ft 1 kts 269°
2026-05-08 18:22 13.20181 77.71873 3014 ft 2 kts 269°
2026-05-08 18:22 13.20181 77.71853 3012 ft 4 kts 270°
2026-05-08 18:22 13.20186 77.71814 3014 ft 7 kts 289°
2026-05-08 18:23 13.20236 77.71788 3011 ft 10 kts 356°
2026-05-08 18:23 13.20316 77.71788 3011 ft 13 kts
2026-05-08 18:23 13.20409 77.71789 3011 ft 13 kts
2026-05-08 18:23 13.20500 77.71780 3011 ft 13 kts 329°
2026-05-08 18:24 13.20522 77.71698 3012 ft 12 kts 270°
2026-05-08 18:24 13.20522 77.71608 3011 ft 13 kts 271°
2026-05-08 18:24 13.20524 77.71514 3011 ft 14 kts 271°
2026-05-08 18:24 13.20524 77.71415 3011 ft 14 kts 269°
2026-05-08 18:25 13.20523 77.71314 3011 ft 14 kts 270°
2026-05-08 18:25 13.20525 77.71209 3011 ft 15 kts 272°
2026-05-08 18:25 13.20528 77.71103 3011 ft 15 kts 270°
2026-05-08 18:25 13.20528 77.70993 3011 ft 16 kts 270°
2026-05-08 18:26 13.20529 77.70880 3011 ft 16 kts 271°
2026-05-08 18:26 13.20530 77.70767 3011 ft 16 kts 270°
2026-05-08 18:26 13.20531 77.70652 3011 ft 16 kts 271°
2026-05-08 18:26 13.20532 77.70534 3011 ft 17 kts 270°
2026-05-08 18:27 13.20533 77.70409 3011 ft 18 kts 271°
2026-05-08 18:27 13.20534 77.70322 3011 ft 19 kts 271°
2026-05-08 18:27 13.20535 77.70125 3012 ft 22 kts 270°
2026-05-08 18:27 13.20536 77.69969 3011 ft 22 kts 270°
2026-05-08 18:28 13.20538 77.69814 3011 ft 22 kts 270°
2026-05-08 18:28 13.20539 77.69658 3011 ft 22 kts 270°
2026-05-08 18:28 13.20541 77.69502 3011 ft 22 kts 270°
2026-05-08 18:28 13.20542 77.69344 3011 ft 22 kts 270°
2026-05-08 18:29 13.20543 77.69187 3011 ft 22 kts 270°
2026-05-08 18:29 13.20545 77.69030 3011 ft 22 kts 270°
2026-05-08 18:29 13.20546 77.68873 3011 ft 22 kts 270°
2026-05-08 18:29 13.20547 77.68724 3011 ft 16 kts 270°
2026-05-08 18:30 13.20550 77.68649 3011 ft 7 kts 284°
2026-05-08 18:30 13.20586 77.68618 3011 ft 7 kts 342°
2026-05-08 18:30 13.20635 77.68616 3011 ft 7 kts
2026-05-08 18:30 13.20686 77.68625 3011 ft 8 kts 20°
2026-05-08 18:31 13.20717 77.68667 3011 ft 8 kts 73°
2026-05-08 18:31 13.20719 77.68694 3011 ft 0 kts 89°
2026-05-08 18:31 13.20719 77.68695 3011 ft 1 kts 89°
2026-05-08 18:31 13.20718 77.68899 3011 ft 62 kts 91°
2026-05-08 18:32 13.20712 77.69559 3011 ft 121 kts 90°
2026-05-08 18:32 13.20703 77.70603 3012 ft 170 kts 90°
2026-05-08 18:32 13.20695 77.71910 3398 ft 181 kts 88°
2026-05-08 18:32 13.20947 77.73125 4242 ft 178 kts 62°
2026-05-08 18:33 13.21667 77.74178 4825 ft 183 kts 59°
2026-05-08 18:33 13.22372 77.75333 4988 ft 200 kts 61°
2026-05-08 18:33 13.23101 77.76611 5118 ft 214 kts 62°
2026-05-08 18:33 13.23853 77.77963 5234 ft 229 kts 62°
2026-05-08 18:34 13.24671 77.79452 5334 ft 250 kts 62°
2026-05-08 18:34 13.25560 77.81081 5586 ft 263 kts 62°
2026-05-08 18:34 13.26454 77.82732 6112 ft 266 kts 64°
2026-05-08 18:34 13.26912 77.84559 6590 ft 268 kts 86°
2026-05-08 18:35 13.26955 77.86481 7071 ft 271 kts 89°
2026-05-08 18:35 13.26928 77.88426 7555 ft 274 kts 90°
2026-05-08 18:35 13.26880 77.90388 8033 ft 277 kts 90°
2026-05-08 18:35 13.26831 77.92373 8505 ft 280 kts 90°
2026-05-08 18:36 13.26789 77.94376 8985 ft 282 kts 90°
2026-05-08 18:36 13.26756 77.96400 9463 ft 285 kts 89°
2026-05-08 18:36 13.26727 77.98444 9921 ft 288 kts 89°
2026-05-08 18:36 13.26705 78.00480 10337 ft 290 kts 89°
2026-05-08 18:37 13.26685 78.02589 10769 ft 293 kts 89°
2026-05-08 18:37 13.26665 78.04654 11187 ft 295 kts 89°
2026-05-08 18:37 13.26644 78.06762 11616 ft 297 kts 89°
2026-05-08 18:37 13.26632 78.07914 11840 ft 298 kts 90°
2026-05-08 18:38 13.26360 78.10040 12189 ft 307 kts 103°
2026-05-08 18:38 13.25738 78.12187 12307 ft 321 kts 105°
2026-05-08 18:38 13.25071 78.14421 12435 ft 334 kts 105°
2026-05-08 18:38 13.24390 78.16706 12554 ft 346 kts 105°
2026-05-08 18:39 13.23677 78.19105 12683 ft 357 kts 105°
2026-05-08 18:39 13.22943 78.21580 12861 ft 366 kts 105°
2026-05-08 18:39 13.22201 78.24094 13206 ft 370 kts 105°
2026-05-08 18:39 13.21454 78.26635 13587 ft 373 kts 105°
2026-05-08 18:40 13.20702 78.29189 13941 ft 376 kts 105°
2026-05-08 18:40 13.19943 78.31763 14278 ft 378 kts 105°
2026-05-08 18:40 13.19178 78.34356 14612 ft 380 kts 105°
2026-05-08 18:40 13.18408 78.36960 14937 ft 383 kts 105°
2026-05-08 18:41 13.17632 78.39582 15278 ft 385 kts 105°
2026-05-08 18:41 13.16854 78.42214 15602 ft 387 kts 105°
2026-05-08 18:41 13.16067 78.44869 15930 ft 389 kts 105°
2026-05-08 18:41 13.15278 78.47531 16250 ft 391 kts 105°
2026-05-08 18:42 13.14484 78.50209 16572 ft 394 kts 106°
2026-05-08 18:42 13.13686 78.52903 16888 ft 396 kts 106°
2026-05-08 18:42 13.12884 78.55616 17213 ft 398 kts 106°
2026-05-08 18:42 13.12075 78.58340 17538 ft 401 kts 106°
2026-05-08 18:43 13.11260 78.61083 17840 ft 403 kts 106°
2026-05-08 18:43 13.10442 78.63838 18144 ft 405 kts 106°
2026-05-08 18:43 13.09618 78.66611 18413 ft 407 kts 106°
2026-05-08 18:43 13.08791 78.69400 18658 ft 409 kts 106°
2026-05-08 18:44 13.07961 78.72194 18918 ft 411 kts 106°
2026-05-08 18:44 13.07124 78.75003 19188 ft 412 kts 106°
2026-05-08 18:44 13.06288 78.77816 19439 ft 414 kts 106°
2026-05-08 18:44 13.05447 78.80643 19713 ft 415 kts 106°
2026-05-08 18:45 13.04604 78.83480 19971 ft 416 kts 106°
2026-05-08 18:45 13.04046 78.85362 20137 ft 417 kts 106°
2026-05-08 18:45 13.02917 78.89157 20465 ft 419 kts 106°
2026-05-08 18:45 13.02061 78.92017 20697 ft 420 kts 106°
2026-05-08 18:46 13.01494 78.93915 20851 ft 421 kts 106°
2026-05-08 18:46 13.00633 78.96796 21093 ft 423 kts 106°
2026-05-08 18:46 12.99773 78.99677 21331 ft 424 kts 106°
2026-05-08 18:46 12.98910 79.02573 21566 ft 425 kts 106°
2026-05-08 18:47 12.98043 79.05479 21786 ft 427 kts 107°
2026-05-08 18:47 12.97074 79.09386 22073 ft 428 kts 97°
2026-05-08 18:47 12.96889 79.12424 22291 ft 429 kts 88°
2026-05-08 18:47 12.96938 79.14489 22432 ft 430 kts 88°
2026-05-08 18:48 12.97009 79.17555 22647 ft 431 kts 88°
2026-05-08 18:48 12.97073 79.20636 22861 ft 432 kts 88°
2026-05-08 18:48 12.97131 79.23721 23068 ft 434 kts 89°
2026-05-08 18:48 12.97186 79.26822 23257 ft 436 kts 89°
2026-05-08 18:49 12.97240 79.29932 23458 ft 437 kts 89°
2026-05-08 18:49 12.97295 79.33011 23627 ft 439 kts 89°
2026-05-08 18:49 12.97356 79.36144 23794 ft 440 kts 89°
2026-05-08 18:49 12.97416 79.39327 23954 ft 442 kts 89°
2026-05-08 18:50 12.97475 79.42433 24105 ft 443 kts 89°
2026-05-08 18:50 12.97535 79.45597 24258 ft 445 kts 89°
2026-05-08 18:50 12.97598 79.48773 24415 ft 446 kts 89°
2026-05-08 18:50 12.97662 79.51955 24565 ft 447 kts 89°
2026-05-08 18:51 12.97723 79.55150 24722 ft 449 kts 89°
2026-05-08 18:51 12.97783 79.58352 24882 ft 450 kts 89°
2026-05-08 18:51 12.97843 79.61559 25037 ft 451 kts 89°
2026-05-08 18:51 12.97903 79.64778 25196 ft 452 kts 89°
2026-05-08 18:52 12.97959 79.68002 25353 ft 453 kts 89°
2026-05-08 18:52 12.98014 79.71233 25524 ft 454 kts 89°
2026-05-08 18:52 12.98068 79.74481 25678 ft 455 kts 89°
2026-05-08 18:52 12.98125 79.77728 25835 ft 457 kts 89°
2026-05-08 18:53 12.98185 79.80982 25986 ft 458 kts 89°
2026-05-08 18:53 12.98245 79.84250 26138 ft 459 kts 89°
2026-05-08 18:53 12.98304 79.87527 26294 ft 460 kts 89°
2026-05-08 18:53 12.98360 79.90814 26448 ft 462 kts 89°
2026-05-08 18:54 12.98413 79.94115 26599 ft 463 kts 89°
2026-05-08 18:54 12.98466 79.97419 26760 ft 464 kts 89°
2026-05-08 18:54 12.98522 80.00731 26918 ft 465 kts 89°
2026-05-08 18:54 12.98580 80.04054 27075 ft 467 kts 89°
2026-05-08 18:55 12.98690 80.10721 27386 ft 469 kts 89°
2026-05-08 18:55 12.98508 80.14058 27531 ft 470 kts 98°
2026-05-08 18:55 12.97798 80.17322 27673 ft 471 kts 108°
2026-05-08 18:56 12.96596 80.20445 27808 ft 472 kts 115°
2026-05-08 18:56 12.95245 80.23517 27952 ft 473 kts 114°
2026-05-08 18:56 12.93900 80.26600 28082 ft 474 kts 114°
2026-05-08 18:56 12.92559 80.29690 28228 ft 475 kts 114°
2026-05-08 18:57 12.91216 80.32789 28349 ft 477 kts 114°
2026-05-08 18:57 12.89864 80.35897 28488 ft 478 kts 114°
2026-05-08 18:57 12.88507 80.39008 28611 ft 479 kts 114°
2026-05-08 18:57 12.87145 80.42125 28736 ft 479 kts 114°
2026-05-08 18:58 12.85780 80.45243 28863 ft 480 kts 115°
2026-05-08 18:58 12.84409 80.48368 28986 ft 481 kts 115°
2026-05-08 18:58 12.83040 80.51493 29112 ft 481 kts 115°
2026-05-08 18:58 12.81672 80.54626 29242 ft 482 kts 115°
2026-05-08 18:59 12.80307 80.57755 29375 ft 482 kts 115°
2026-05-08 18:59 12.78936 80.60891 29508 ft 482 kts 115°
2026-05-08 18:59 12.77560 80.64025 29643 ft 482 kts 115°
2026-05-08 18:59 12.76183 80.67156 29787 ft 482 kts 115°
2026-05-08 19:00 12.74809 80.70284 29931 ft 482 kts 115°
2026-05-08 19:00 12.73436 80.73415 30066 ft 481 kts 115°
2026-05-08 19:00 12.72067 80.76538 30193 ft 480 kts 115°
2026-05-08 19:00 12.70702 80.79656 30339 ft 480 kts 115°
2026-05-08 19:01 12.69335 80.82770 30477 ft 479 kts 115°
2026-05-08 19:01 12.67968 80.85875 30614 ft 478 kts 115°
2026-05-08 19:01 12.66618 80.88936 30743 ft 478 kts 115°
2026-05-08 19:01 12.65255 80.92035 30872 ft 477 kts 115°
2026-05-08 19:02 12.63894 80.95135 31000 ft 477 kts 115°
2026-05-08 19:02 12.62533 80.98229 31131 ft 476 kts 115°
2026-05-08 19:02 12.61171 81.01318 31259 ft 476 kts 115°
2026-05-08 19:02 12.59810 81.04408 31379 ft 476 kts 115°
2026-05-08 19:03 12.58454 81.07493 31504 ft 476 kts 115°
2026-05-08 19:03 12.57098 81.10576 31626 ft 475 kts 115°
2026-05-08 19:03 12.55736 81.13665 31747 ft 475 kts 115°
2026-05-08 19:03 12.54377 81.16746 31867 ft 475 kts 115°
2026-05-08 19:04 12.53019 81.19826 31989 ft 475 kts 115°
2026-05-08 19:04 12.51645 81.22942 32109 ft 474 kts 115°
2026-05-08 19:04 12.50304 81.25979 32228 ft 474 kts 115°
2026-05-08 19:04 12.48946 81.29050 32352 ft 474 kts 115°
2026-05-08 19:05 12.47584 81.32127 32475 ft 474 kts 115°
2026-05-08 19:05 12.46228 81.35189 32605 ft 473 kts 115°
2026-05-08 19:05 12.44871 81.38258 32728 ft 473 kts 115°
2026-05-08 19:05 12.43517 81.41320 32852 ft 472 kts 115°
2026-05-08 19:06 12.42164 81.44379 32976 ft 472 kts 115°
2026-05-08 19:06 12.40810 81.47431 33107 ft 471 kts 116°
2026-05-08 19:06 12.39455 81.50484 33226 ft 471 kts 116°
2026-05-08 19:06 12.38107 81.53532 33351 ft 470 kts 115°
2026-05-08 19:07 12.36762 81.56577 33480 ft 470 kts 116°
2026-05-08 19:07 12.35415 81.59621 33611 ft 469 kts 115°
2026-05-08 19:07 12.34069 81.62653 33751 ft 468 kts 116°
2026-05-08 19:07 12.32723 81.65679 33889 ft 467 kts 116°
2026-05-08 19:08 12.31381 81.68698 34012 ft 465 kts 116°
2026-05-08 19:08 12.30043 81.71707 34140 ft 464 kts 115°
2026-05-08 19:08 12.28713 81.74707 34256 ft 463 kts 115°
2026-05-08 19:08 12.27389 81.77699 34383 ft 462 kts 115°
2026-05-08 19:09 12.26059 81.80694 34498 ft 461 kts 115°
2026-05-08 19:09 12.24734 81.83675 34613 ft 460 kts 115°
2026-05-08 19:09 12.23411 81.86655 34727 ft 460 kts 115°
2026-05-08 19:09 12.22087 81.89625 34842 ft 459 kts 115°
2026-05-08 19:10 12.20765 81.92592 34957 ft 458 kts 115°
2026-05-08 19:10 12.19448 81.95551 35075 ft 457 kts 115°
2026-05-08 19:10 12.18133 81.98506 35187 ft 457 kts 115°
2026-05-08 19:10 12.16818 82.01461 35302 ft 456 kts 115°
2026-05-08 19:11 12.15507 82.04404 35421 ft 455 kts 115°
2026-05-08 19:11 12.14199 82.07340 35541 ft 454 kts 115°
2026-05-08 19:11 12.12890 82.10277 35652 ft 453 kts 115°
2026-05-08 19:11 12.11587 82.13199 35774 ft 452 kts 115°
2026-05-08 19:12 12.10287 82.16114 35893 ft 451 kts 115°
2026-05-08 19:12 12.08986 82.19027 36013 ft 449 kts 115°
2026-05-08 19:12 12.07693 82.21922 36126 ft 448 kts 115°
2026-05-08 19:12 12.06402 82.24816 36252 ft 447 kts 115°
2026-05-08 19:13 12.05114 82.27703 36375 ft 446 kts 116°
2026-05-08 19:13 12.03831 82.30575 36493 ft 444 kts 115°
2026-05-08 19:13 12.02548 82.33442 36615 ft 443 kts 116°
2026-05-08 19:13 12.01272 82.36296 36774 ft 440 kts 115°
2026-05-08 19:14 12.00000 82.39133 36836 ft 440 kts 115°
2026-05-08 19:14 11.97440 82.44845 36836 ft 443 kts 115°
2026-05-08 19:15 11.94868 82.50584 36834 ft 446 kts 116°
2026-05-08 19:15 11.92279 82.56362 36837 ft 449 kts 115°
2026-05-08 19:16 11.89680 82.62179 36836 ft 451 kts 115°
2026-05-08 19:16 11.87067 82.68019 36830 ft 453 kts 116°
2026-05-08 19:17 11.84438 82.73869 36836 ft 454 kts 116°
2026-05-08 19:17 11.81797 82.79726 36837 ft 455 kts 116°
2026-05-08 19:18 11.79151 82.85600 36842 ft 455 kts 115°
2026-05-08 19:18 11.76515 82.91478 36848 ft 456 kts 115°
2026-05-08 19:19 11.73878 82.97354 36852 ft 456 kts 115°
2026-05-08 19:19 11.71226 83.03234 36856 ft 456 kts 115°
2026-05-08 19:20 11.68575 83.09105 36855 ft 456 kts 115°
2026-05-08 19:20 11.65919 83.14980 36855 ft 456 kts 115°
2026-05-08 19:21 11.63269 83.20861 36855 ft 456 kts 115°
2026-05-08 19:21 11.60619 83.26732 36858 ft 456 kts 115°
2026-05-08 19:22 11.57969 83.32600 36855 ft 456 kts 115°
2026-05-08 19:22 11.55363 83.38494 36856 ft 456 kts 115°
2026-05-08 19:23 11.52783 83.44396 36855 ft 455 kts 115°
2026-05-08 19:23 11.50191 83.50282 36857 ft 455 kts 115°
2026-05-08 19:24 11.47590 83.56157 36860 ft 454 kts 115°
2026-05-08 19:24 11.44991 83.62025 36864 ft 454 kts 115°
2026-05-08 19:25 11.42404 83.67882 36864 ft 453 kts 115°
2026-05-08 19:25 11.39814 83.73720 36864 ft 452 kts 115°
2026-05-08 19:26 11.37230 83.79549 36865 ft 451 kts 115°
2026-05-08 19:26 11.34673 83.85335 36859 ft 450 kts 115°
2026-05-08 19:27 11.32086 83.91184 36857 ft 450 kts 115°
2026-05-08 19:27 11.29526 83.96946 36859 ft 449 kts 115°
2026-05-08 19:28 11.26951 84.02741 36860 ft 448 kts 115°
2026-05-08 19:28 11.24378 84.08524 36858 ft 448 kts 114°
2026-05-08 19:29 11.21816 84.14303 36858 ft 448 kts 114°
2026-05-08 19:29 11.19248 84.20078 36855 ft 448 kts 114°
2026-05-08 19:30 11.16674 84.25856 36855 ft 448 kts 114°
2026-05-08 19:30 11.14101 84.31634 36851 ft 448 kts 114°
2026-05-08 19:31 11.11531 84.37405 36850 ft 448 kts 114°
2026-05-08 19:31 11.08955 84.43181 36852 ft 448 kts 114°
2026-05-08 19:32 11.06817 84.47976 36851 ft 448 kts 114°
2026-05-08 19:32 11.04248 84.53748 36851 ft 448 kts 114°
2026-05-08 19:33 11.01672 84.59517 36849 ft 448 kts 115°
2026-05-08 19:33 10.99089 84.65285 36844 ft 448 kts 115°
2026-05-08 19:34 10.96510 84.71057 36839 ft 448 kts 115°
2026-05-08 19:34 10.93925 84.76831 36841 ft 448 kts 115°
2026-05-08 19:35 10.91341 84.82605 36842 ft 449 kts 115°
2026-05-08 19:35 10.88746 84.88393 36841 ft 449 kts 115°
2026-05-08 19:36 10.86153 84.94174 36842 ft 450 kts 115°
2026-05-08 19:36 10.83560 84.99967 36847 ft 450 kts 115°
2026-05-08 19:37 10.80959 85.05752 36845 ft 450 kts 115°
2026-05-08 19:37 10.78361 85.11522 36845 ft 450 kts 115°
2026-05-08 19:38 10.75764 85.17317 36848 ft 450 kts 115°
2026-05-08 19:38 10.73158 85.23115 36846 ft 450 kts 115°
2026-05-08 19:39 10.70552 85.28902 36847 ft 450 kts 115°
2026-05-08 19:39 10.67950 85.34695 36852 ft 450 kts 115°
2026-05-08 19:40 10.65346 85.40486 36849 ft 450 kts 115°
2026-05-08 19:40 10.62735 85.46278 36855 ft 451 kts 115°
2026-05-08 19:41 10.60135 85.52069 36853 ft 451 kts 115°
2026-05-08 19:41 10.57517 85.57861 36854 ft 451 kts 115°
2026-05-08 19:42 10.54902 85.63642 36855 ft 450 kts 115°
2026-05-08 19:42 10.52292 85.69429 36853 ft 450 kts 115°
2026-05-08 19:43 10.49681 85.75210 36855 ft 450 kts 115°
2026-05-08 19:43 10.47069 85.80980 36855 ft 449 kts 115°
2026-05-08 19:44 10.44478 85.86711 36849 ft 449 kts 115°
2026-05-08 19:44 10.41851 85.92510 36848 ft 449 kts 115°
2026-05-08 19:45 10.39256 85.98249 36847 ft 450 kts 115°
2026-05-08 19:45 10.36624 86.04060 36851 ft 450 kts 115°
2026-05-08 19:46 10.34025 86.09789 36847 ft 450 kts 115°
2026-05-08 19:46 10.30079 86.18485 36849 ft 450 kts 115°
2026-05-08 19:47 10.27473 86.24213 36845 ft 450 kts 115°
2026-05-08 19:47 10.24854 86.29980 36847 ft 450 kts 115°
2026-05-08 19:48 10.22236 86.35741 36849 ft 450 kts 115°
2026-05-08 19:48 10.19618 86.41506 36849 ft 450 kts 114°
2026-05-08 19:49 10.17001 86.47267 36852 ft 450 kts 114°
2026-05-08 19:49 10.14371 86.53028 36853 ft 449 kts 114°
2026-05-08 19:50 10.11746 86.58783 36852 ft 449 kts 114°
2026-05-08 19:50 10.09131 86.64529 36853 ft 449 kts 114°
2026-05-08 19:51 10.06512 86.70274 36857 ft 449 kts 114°
2026-05-08 19:51 10.03894 86.76017 36856 ft 449 kts 114°
2026-05-08 19:52 10.01266 86.81761 36852 ft 449 kts 114°
2026-05-08 19:52 9.98649 86.87500 36850 ft 448 kts 114°
2026-05-08 19:53 9.96030 86.93246 36849 ft 448 kts 114°
2026-05-08 19:53 9.93404 86.98978 36850 ft 448 kts 114°
2026-05-08 19:54 9.90777 87.04712 36852 ft 448 kts 114°
2026-05-08 19:54 9.88174 87.10402 36853 ft 448 kts 114°
2026-05-08 19:55 9.85554 87.16127 36851 ft 448 kts 115°
2026-05-08 19:55 9.82926 87.21854 36852 ft 448 kts 115°
2026-05-08 19:56 9.80303 87.27582 36852 ft 448 kts 115°
2026-05-08 19:56 9.77680 87.33308 36852 ft 448 kts 115°
2026-05-08 19:57 9.75079 87.39038 36853 ft 447 kts 114°
2026-05-08 19:57 9.72547 87.44795 36854 ft 447 kts 114°
2026-05-08 19:58 9.70025 87.50556 36851 ft 447 kts 114°
2026-05-08 19:58 9.67483 87.56305 36852 ft 447 kts 114°
2026-05-08 19:59 9.64938 87.62050 36853 ft 447 kts 114°
2026-05-08 19:59 9.62401 87.67803 36851 ft 447 kts 114°
2026-05-08 20:00 9.59852 87.73542 36850 ft 447 kts 114°
2026-05-08 20:00 9.57304 87.79288 36847 ft 447 kts 114°
2026-05-08 20:01 9.54765 87.85032 36838 ft 447 kts 114°
2026-05-08 20:01 9.52222 87.90773 36849 ft 447 kts 114°
2026-05-08 20:02 9.49671 87.96515 36840 ft 447 kts 114°
2026-05-08 20:02 9.47123 88.02250 36842 ft 447 kts 114°
2026-05-08 20:03 9.44570 88.07989 36842 ft 447 kts 114°
2026-05-08 20:03 9.42015 88.13735 36848 ft 447 kts 114°
2026-05-08 20:04 9.39461 88.19477 36842 ft 447 kts 114°
2026-05-08 20:04 9.36904 88.25227 36845 ft 448 kts 114°
2026-05-08 20:05 9.34350 88.30969 36854 ft 448 kts 114°
2026-05-08 20:05 9.31803 88.36681 36853 ft 448 kts 114°
2026-05-08 20:06 9.29248 88.42432 36840 ft 448 kts 114°
2026-05-08 20:06 9.26686 88.48184 36855 ft 448 kts 114°
2026-05-08 20:07 9.24122 88.53932 36842 ft 448 kts 114°
2026-05-08 20:07 9.21559 88.59681 36856 ft 448 kts 114°
2026-05-08 20:08 9.18990 88.65429 36854 ft 448 kts 114°
2026-05-08 20:08 9.16422 88.71181 36845 ft 448 kts 114°
2026-05-08 20:09 9.13855 88.76927 36855 ft 448 kts 114°
2026-05-08 20:09 9.11289 88.82670 36846 ft 448 kts 114°
2026-05-08 20:10 9.08724 88.88408 36858 ft 448 kts 114°
2026-05-08 20:10 9.06152 88.94141 36848 ft 447 kts 114°
2026-05-08 20:11 9.03584 88.99867 36860 ft 447 kts 114°
2026-05-08 20:11 9.01019 89.05593 36847 ft 447 kts 114°
2026-05-08 20:12 8.98452 89.11313 36848 ft 446 kts 114°
2026-05-08 20:12 8.95891 89.17022 36857 ft 445 kts 114°
2026-05-08 20:13 8.93339 89.22724 36850 ft 445 kts 114°
2026-05-08 20:13 8.90782 89.28428 36855 ft 445 kts 114°
2026-05-08 20:14 8.88225 89.34125 36855 ft 445 kts 114°
2026-05-08 20:14 8.85665 89.39820 36851 ft 445 kts 114°
2026-05-08 20:15 8.83106 89.45511 36852 ft 444 kts 114°
2026-05-08 20:15 8.80547 89.51196 36858 ft 444 kts 114°
2026-05-08 20:16 8.77992 89.56884 36856 ft 444 kts 114°
2026-05-08 20:16 8.75432 89.62565 36863 ft 444 kts 114°
2026-05-08 20:17 8.73299 89.67280 36850 ft 444 kts 114°
2026-05-08 20:17 8.70738 89.72962 36860 ft 444 kts 114°
2026-05-08 20:18 8.68182 89.78645 36850 ft 444 kts 114°
2026-05-08 20:18 8.65624 89.84319 36847 ft 444 kts 114°
2026-05-08 20:19 8.63062 89.89998 36854 ft 444 kts 114°
2026-05-08 20:19 8.60502 89.95681 36855 ft 444 kts 114°
2026-05-08 20:20 8.57939 90.01356 36862 ft 444 kts 114°
2026-05-08 20:20 8.55375 90.07020 36855 ft 444 kts 114°
2026-05-08 20:21 8.52806 90.12690 36857 ft 444 kts 114°
2026-05-08 20:21 8.50244 90.18358 36862 ft 444 kts 114°
2026-05-08 20:22 8.47675 90.24029 36857 ft 444 kts 114°
2026-05-08 20:22 8.45112 90.29700 36865 ft 444 kts 114°
2026-05-08 20:23 8.42548 90.35364 36860 ft 444 kts 114°
2026-05-08 20:23 8.39981 90.41032 36858 ft 444 kts 114°
2026-05-08 20:24 8.37435 90.46658 36860 ft 444 kts 114°
2026-05-08 20:24 8.34872 90.52321 36855 ft 444 kts 114°
2026-05-08 20:25 8.32303 90.57993 36856 ft 444 kts 114°
2026-05-08 20:25 8.29725 90.63659 36863 ft 444 kts 114°
2026-05-08 20:26 8.27149 90.69326 36863 ft 444 kts 114°
2026-05-08 20:26 8.24570 90.75004 36857 ft 445 kts 114°
2026-05-08 20:27 8.21989 90.80681 36866 ft 445 kts 114°
2026-05-08 20:27 8.19406 90.86362 36859 ft 445 kts 114°
2026-05-08 20:28 8.16821 90.92041 36863 ft 446 kts 114°
2026-05-08 20:28 8.14232 90.97727 36869 ft 446 kts 114°
2026-05-08 20:29 8.11647 91.03415 36863 ft 446 kts 114°
2026-05-08 20:29 8.09054 91.09093 36865 ft 446 kts 114°
2026-05-08 20:30 8.06466 91.14776 36865 ft 446 kts 114°
2026-05-08 20:30 8.03877 91.20457 36872 ft 446 kts 114°
2026-05-08 20:31 8.01290 91.26145 36868 ft 446 kts 114°
2026-05-08 20:31 7.98697 91.31823 36873 ft 445 kts 114°
2026-05-08 20:32 7.96109 91.37498 36871 ft 446 kts 114°
2026-05-08 20:32 7.93518 91.43178 36871 ft 446 kts 114°
2026-05-08 20:33 7.90920 91.48855 36872 ft 446 kts 114°
2026-05-08 20:33 7.88324 91.54535 36866 ft 446 kts 114°
2026-05-08 20:34 7.85728 91.60212 36871 ft 446 kts 114°
2026-05-08 20:35 7.81826 91.68736 36868 ft 446 kts 114°
2026-05-08 20:35 7.79292 91.74450 36870 ft 447 kts 113°
2026-05-08 20:36 7.76789 91.80188 36870 ft 447 kts 113°
2026-05-08 20:36 7.74274 91.85918 36869 ft 447 kts 113°
2026-05-08 20:37 7.71748 91.91644 36866 ft 447 kts 113°
2026-05-08 20:37 7.69217 91.97371 36868 ft 447 kts 113°
2026-05-08 20:38 7.66685 92.03103 36870 ft 448 kts 113°
2026-05-08 20:38 7.64147 92.08839 36872 ft 448 kts 113°
2026-05-08 20:39 7.61609 92.14573 36872 ft 448 kts 113°
2026-05-08 20:39 7.59074 92.20308 36865 ft 448 kts 113°
2026-05-08 20:40 7.56538 92.26049 36879 ft 448 kts 113°
2026-05-08 20:40 7.54001 92.31778 36871 ft 448 kts 113°
2026-05-08 20:41 7.51455 92.37513 36874 ft 448 kts 113°
2026-05-08 20:41 7.48912 92.43241 36868 ft 448 kts 113°
2026-05-08 20:42 7.46376 92.48972 36875 ft 448 kts 113°
2026-05-08 20:42 7.43842 92.54698 36880 ft 447 kts 113°
2026-05-08 20:43 7.41306 92.60420 36872 ft 447 kts 113°
2026-05-08 20:43 7.38765 92.66133 36870 ft 447 kts 113°
2026-05-08 20:44 7.36225 92.71848 36873 ft 447 kts 113°
2026-05-08 20:44 7.33685 92.77562 36872 ft 447 kts 113°
2026-05-08 20:45 7.31154 92.83273 36871 ft 446 kts 113°
2026-05-08 20:45 7.28621 92.88975 36877 ft 446 kts 113°
2026-05-08 20:46 7.26076 92.94681 36881 ft 446 kts 113°
2026-05-08 20:46 7.23538 93.00384 36872 ft 446 kts 113°
2026-05-08 20:47 7.21000 93.06085 36875 ft 446 kts 113°
2026-05-08 20:47 7.18460 93.11785 36876 ft 446 kts 113°
2026-05-08 20:48 7.15921 93.17486 36875 ft 446 kts 113°
2026-05-08 20:48 7.13381 93.23188 36877 ft 446 kts 113°
2026-05-08 20:49 7.10843 93.28892 36879 ft 447 kts 113°
2026-05-08 20:49 7.08304 93.34598 36878 ft 447 kts 113°
2026-05-08 20:50 7.05749 93.40307 36876 ft 447 kts 113°
2026-05-08 20:50 7.03208 93.45975 36872 ft 447 kts 113°
2026-05-08 20:51 7.00642 93.51730 36876 ft 447 kts 113°
2026-05-08 20:51 6.98102 93.57442 36880 ft 448 kts 113°
2026-05-08 20:52 6.95572 93.63124 36877 ft 448 kts 113°
2026-05-08 20:52 6.92997 93.68884 36880 ft 448 kts 113°
2026-05-08 20:53 6.90458 93.74556 36876 ft 448 kts 113°
2026-05-08 20:53 6.87896 93.80274 36881 ft 448 kts 113°
2026-05-08 20:54 6.85336 93.85991 36880 ft 448 kts 113°
2026-05-08 20:54 6.82777 93.91709 36880 ft 448 kts 113°
2026-05-08 20:55 6.80218 93.97425 36885 ft 448 kts 113°
2026-05-08 20:55 6.77659 94.03149 36882 ft 449 kts 113°
2026-05-08 20:56 6.75091 94.08873 36881 ft 449 kts 113°
2026-05-08 20:56 6.72519 94.14594 36879 ft 449 kts 113°
2026-05-08 20:57 6.69947 94.20322 36878 ft 449 kts 113°
2026-05-08 20:57 6.67378 94.26053 36874 ft 449 kts 113°
2026-05-08 20:58 6.64812 94.31785 36879 ft 450 kts 113°
2026-05-08 20:58 6.62242 94.37520 36874 ft 450 kts 113°
2026-05-08 20:59 6.59621 94.43238 36873 ft 450 kts 115°
2026-05-08 20:59 6.56630 94.48774 36872 ft 451 kts 119°
2026-05-08 21:00 6.53468 94.54221 36876 ft 451 kts 119°
2026-05-08 21:00 6.50363 94.59697 36874 ft 451 kts 118°
2026-05-08 21:01 6.47832 94.64282 36879 ft 451 kts 117°
2026-05-08 21:01 6.44797 94.69804 36874 ft 451 kts 117°
2026-05-08 21:02 6.41754 94.75319 36874 ft 451 kts 118°
2026-05-08 21:02 6.38702 94.80827 36869 ft 451 kts 118°
2026-05-08 21:03 6.35644 94.86335 36873 ft 451 kts 118°
2026-05-08 21:03 6.32584 94.91841 36875 ft 451 kts 118°
2026-05-08 21:04 6.29520 94.97352 36876 ft 451 kts 118°
2026-05-08 21:04 6.26457 95.02861 36878 ft 452 kts 118°
2026-05-08 21:05 6.23397 95.08376 36877 ft 452 kts 117°
2026-05-08 21:05 6.20350 95.13898 36879 ft 452 kts 117°
2026-05-08 21:06 6.17309 95.19421 36878 ft 452 kts 117°
2026-05-08 21:06 6.14265 95.24948 36878 ft 452 kts 117°
2026-05-08 21:07 6.11233 95.30479 36876 ft 452 kts 117°
2026-05-08 21:07 6.08191 95.36006 36880 ft 452 kts 117°
2026-05-08 21:08 6.05159 95.41492 36880 ft 452 kts 118°
2026-05-08 21:08 6.02111 95.47012 36881 ft 452 kts 117°
2026-05-08 21:09 5.98789 95.52369 36878 ft 453 kts 128°
2026-05-08 21:09 5.94833 95.57296 36881 ft 453 kts 127°
2026-05-08 21:10 5.90877 95.62230 36882 ft 453 kts 127°
2026-05-08 21:10 5.86929 95.67160 36882 ft 453 kts 127°
2026-05-08 21:11 5.82985 95.72089 36882 ft 453 kts 127°
2026-05-08 21:11 5.79044 95.77017 36883 ft 452 kts 127°
2026-05-08 21:12 5.75102 95.81941 36881 ft 452 kts 128°
2026-05-08 21:12 5.71156 95.86864 36884 ft 452 kts 128°
2026-05-08 21:13 5.67224 95.91781 36884 ft 452 kts 127°
2026-05-08 21:13 5.63289 95.96702 36886 ft 451 kts 127°
2026-05-08 21:14 5.59354 96.01607 36884 ft 451 kts 128°
2026-05-08 21:14 5.55420 96.06503 36884 ft 450 kts 127°
2026-05-08 21:15 5.51495 96.11396 36892 ft 449 kts 127°
2026-05-08 21:15 5.47575 96.16278 36889 ft 448 kts 127°
2026-05-08 21:16 5.43673 96.21144 36905 ft 447 kts 127°
2026-05-08 21:16 5.39768 96.26003 36897 ft 446 kts 127°
2026-05-08 21:17 5.35879 96.30843 36902 ft 445 kts 127°
2026-05-08 21:17 5.32002 96.35678 36906 ft 444 kts 127°
2026-05-08 21:18 5.28131 96.40507 36910 ft 444 kts 127°
2026-05-08 21:18 5.24262 96.45324 36917 ft 443 kts 127°
2026-05-08 21:19 5.20393 96.50136 36922 ft 443 kts 127°
2026-05-08 21:19 5.16534 96.54943 36922 ft 442 kts 127°
2026-05-08 21:20 5.12669 96.59745 36924 ft 442 kts 127°
2026-05-08 21:20 5.08804 96.64544 36923 ft 442 kts 127°
2026-05-08 21:21 5.04943 96.69344 36928 ft 442 kts 127°
2026-05-08 21:21 5.01085 96.74146 36932 ft 442 kts 127°
2026-05-08 21:22 4.97219 96.78948 36939 ft 443 kts 127°
2026-05-08 21:22 4.93351 96.83758 36941 ft 443 kts 127°
2026-05-08 21:23 4.89489 96.88577 36943 ft 443 kts 127°
2026-05-08 21:23 4.85615 96.93393 36949 ft 444 kts 127°
2026-05-08 21:24 4.81730 96.98202 36950 ft 444 kts 127°
2026-05-08 21:24 4.77840 97.03020 36951 ft 444 kts 127°
2026-05-08 21:25 4.73963 97.07841 36958 ft 445 kts 127°
2026-05-08 21:25 4.70073 97.12674 36961 ft 445 kts 127°
2026-05-08 21:26 4.66188 97.17507 36958 ft 445 kts 127°
2026-05-08 21:26 4.62294 97.22331 36960 ft 445 kts 127°
2026-05-08 21:27 4.58396 97.27157 36961 ft 445 kts 127°
2026-05-08 21:27 4.54523 97.31958 36957 ft 446 kts 127°
2026-05-08 21:28 4.50630 97.36793 36960 ft 446 kts 127°
2026-05-08 21:28 4.46732 97.41631 36958 ft 446 kts 127°
2026-05-08 21:29 4.42835 97.46464 36959 ft 446 kts 127°
2026-05-08 21:29 4.38933 97.51301 36963 ft 446 kts 127°
2026-05-08 21:30 4.35031 97.56136 36960 ft 446 kts 127°
2026-05-08 21:30 4.31129 97.60975 36962 ft 446 kts 127°
2026-05-08 21:31 4.27225 97.65806 36956 ft 447 kts 127°
2026-05-08 21:31 4.23320 97.70647 36953 ft 447 kts 127°
2026-05-08 21:32 4.19417 97.75494 36950 ft 447 kts 127°
2026-05-08 21:32 4.15510 97.80343 36950 ft 447 kts 127°
2026-05-08 21:33 4.11605 97.85178 36951 ft 448 kts 127°
2026-05-08 21:33 4.07685 97.90025 36940 ft 448 kts 127°
2026-05-08 21:34 4.03755 97.94879 36942 ft 448 kts 127°
2026-05-08 21:34 3.99830 97.99737 36943 ft 449 kts 127°
2026-05-08 21:35 3.95907 98.04593 36937 ft 449 kts 127°
2026-05-08 21:35 3.91971 98.09455 36934 ft 449 kts 127°
2026-05-08 21:36 3.88040 98.14314 36928 ft 449 kts 127°
2026-05-08 21:36 3.84113 98.19176 36919 ft 449 kts 127°
2026-05-08 21:37 3.80186 98.24034 36916 ft 450 kts 127°
2026-05-08 21:37 3.76248 98.28903 36914 ft 450 kts 127°
2026-05-08 21:38 3.72306 98.33777 36913 ft 450 kts 127°
2026-05-08 21:38 3.68359 98.38649 36913 ft 451 kts 127°
2026-05-08 21:39 3.64416 98.43523 36911 ft 451 kts 127°
2026-05-08 21:39 3.60467 98.48403 36917 ft 451 kts 127°
2026-05-08 21:40 3.56515 98.53281 36914 ft 451 kts 127°
2026-05-08 21:40 3.52563 98.58162 36911 ft 451 kts 127°
2026-05-08 21:41 3.47364 98.65966 36905 ft 450 kts 119°
2026-05-08 21:41 3.44158 98.71341 36901 ft 450 kts 119°
2026-05-08 21:42 3.40935 98.76729 36903 ft 451 kts 119°
2026-05-08 21:42 3.37717 98.82115 36904 ft 451 kts 119°
2026-05-08 21:43 3.34500 98.87513 36908 ft 452 kts 119°
2026-05-08 21:43 3.31282 98.92919 36911 ft 452 kts 119°
2026-05-08 21:44 3.28050 98.98320 36914 ft 453 kts 119°
2026-05-08 21:44 3.24813 99.03726 36914 ft 453 kts 119°
2026-05-08 21:45 3.21579 99.09145 36915 ft 454 kts 118°
2026-05-08 21:45 3.18888 99.13658 36910 ft 454 kts 118°
2026-05-08 21:46 3.15649 99.19088 36908 ft 454 kts 118°
2026-05-08 21:46 3.12405 99.24513 36904 ft 455 kts 118°
2026-05-08 21:47 3.09161 99.29943 36904 ft 455 kts 118°
2026-05-08 21:47 3.05914 99.35383 36900 ft 455 kts 118°
2026-05-08 21:48 3.02670 99.40813 36906 ft 455 kts 118°
2026-05-08 21:48 2.99420 99.46255 36901 ft 456 kts 118°
2026-05-08 21:49 2.96168 99.51695 36903 ft 456 kts 118°
2026-05-08 21:49 2.92908 99.57138 36907 ft 456 kts 118°
2026-05-08 21:50 2.89644 99.62583 36900 ft 456 kts 118°
2026-05-08 21:50 2.86389 99.68032 36901 ft 456 kts 118°
2026-05-08 21:51 2.83137 99.73472 36898 ft 456 kts 118°
2026-05-08 21:51 2.79879 99.78917 36897 ft 456 kts 118°
2026-05-08 21:52 2.76633 99.84355 36898 ft 456 kts 118°
2026-05-08 21:52 2.73375 99.89796 36897 ft 455 kts 118°
2026-05-08 21:53 2.70654 99.95461 36893 ft 450 kts 104°
2026-05-08 21:53 2.68817 100.01445 36891 ft 450 kts 105°
2026-05-08 21:54 2.66956 100.07427 36889 ft 450 kts 105°
2026-05-08 21:54 2.65086 100.13408 36887 ft 450 kts 105°
2026-05-08 21:55 2.63224 100.19388 36886 ft 450 kts 105°
2026-05-08 21:56 2.60434 100.28361 36887 ft 451 kts 105°
2026-05-08 21:56 2.58555 100.34336 36887 ft 451 kts 105°
2026-05-08 21:57 2.56684 100.40318 36888 ft 451 kts 105°
2026-05-08 21:57 2.54833 100.46267 36889 ft 451 kts 105°
2026-05-08 21:58 2.52970 100.52252 36886 ft 451 kts 105°
2026-05-08 21:58 2.51102 100.58249 36891 ft 451 kts 105°
2026-05-08 21:59 2.49241 100.64243 36894 ft 451 kts 105°
2026-05-08 21:59 2.47383 100.70233 36895 ft 451 kts 105°
2026-05-08 22:00 2.45521 100.76225 36895 ft 451 kts 105°
2026-05-08 22:00 2.43650 100.82253 36899 ft 450 kts 105°
2026-05-08 22:01 2.41813 100.88194 36894 ft 450 kts 105°
2026-05-08 22:01 2.39949 100.94213 36896 ft 450 kts 105°
2026-05-08 22:02 2.38110 101.00117 36893 ft 450 kts 105°
2026-05-08 22:02 2.36250 101.06085 36896 ft 450 kts 105°
2026-05-08 22:03 2.34401 101.12067 36893 ft 450 kts 105°
2026-05-08 22:03 2.32551 101.18046 36892 ft 450 kts 105°
2026-05-08 22:04 2.30701 101.24026 36893 ft 450 kts 105°
2026-05-08 22:04 2.28853 101.30002 36894 ft 450 kts 105°
2026-05-08 22:05 2.26996 101.35984 36896 ft 450 kts 105°
2026-05-08 22:05 2.25136 101.41963 36897 ft 450 kts 105°
2026-05-08 22:06 2.23277 101.47942 36895 ft 450 kts 105°
2026-05-08 22:06 2.21420 101.53914 36893 ft 450 kts 105°
2026-05-08 22:07 2.19196 101.59767 36890 ft 451 kts 111°
2026-05-08 22:07 2.16712 101.65529 36892 ft 452 kts 111°
2026-05-08 22:08 2.14230 101.71307 36897 ft 452 kts 110°
2026-05-08 22:08 2.11754 101.77077 36897 ft 452 kts 110°
2026-05-08 22:09 2.09277 101.82849 36898 ft 452 kts 111°
2026-05-08 22:09 2.06804 101.88615 36899 ft 451 kts 111°
2026-05-08 22:10 2.04351 101.94389 36898 ft 451 kts 111°
2026-05-08 22:10 2.01889 102.00151 36898 ft 451 kts 111°
2026-05-08 22:11 1.99415 102.05910 36898 ft 450 kts 111°
2026-05-08 22:11 1.96949 102.11660 36898 ft 450 kts 111°
2026-05-08 22:12 1.94482 102.17410 36897 ft 450 kts 111°
2026-05-08 22:12 1.92013 102.23148 36899 ft 449 kts 111°
2026-05-08 22:13 1.89548 102.28886 36898 ft 449 kts 111°
2026-05-08 22:13 1.87084 102.34619 36900 ft 449 kts 111°
2026-05-08 22:14 1.84626 102.40350 36899 ft 448 kts 111°
2026-05-08 22:14 1.82171 102.46079 36901 ft 448 kts 111°
2026-05-08 22:15 1.79716 102.51808 36901 ft 448 kts 111°
2026-05-08 22:15 1.77258 102.57521 36898 ft 448 kts 111°
2026-05-08 22:16 1.74801 102.63239 36900 ft 447 kts 111°
2026-05-08 22:16 1.72349 102.68948 36897 ft 447 kts 111°
2026-05-08 22:17 1.69898 102.74666 36896 ft 447 kts 112°
2026-05-08 22:17 1.67442 102.80374 36897 ft 447 kts 112°
2026-05-08 22:18 1.64983 102.86080 36896 ft 447 kts 112°
2026-05-08 22:18 1.62523 102.91793 36896 ft 447 kts 112°
2026-05-08 22:19 1.60075 102.97508 36894 ft 447 kts 111°
2026-05-08 22:19 1.57627 103.03223 36894 ft 447 kts 112°
2026-05-08 22:20 1.55166 103.08938 36895 ft 448 kts 112°
2026-05-08 22:20 1.52709 103.14659 36891 ft 448 kts 111°
2026-05-08 22:21 1.50274 103.20386 36889 ft 448 kts 111°
2026-05-08 22:21 1.47840 103.26117 36889 ft 448 kts 111°
2026-05-08 22:22 1.45400 103.31845 36894 ft 448 kts 111°
2026-05-08 22:22 1.42953 103.37574 36891 ft 448 kts 112°
2026-05-08 22:23 1.40483 103.43304 36889 ft 449 kts 112°
2026-05-08 22:23 1.38008 103.49029 36889 ft 449 kts 112°
2026-05-08 22:24 1.35533 103.54752 36889 ft 449 kts 112°
2026-05-08 22:24 1.33060 103.60491 36886 ft 449 kts 112°
2026-05-08 22:25 1.30588 103.66232 36885 ft 450 kts 112°
2026-05-08 22:25 1.28105 103.71962 36879 ft 450 kts 112°
2026-05-08 22:26 1.25610 103.77697 36881 ft 450 kts 112°
2026-05-08 22:26 1.22885 103.83334 36878 ft 452 kts 122°
2026-05-08 22:27 1.18622 103.87928 36877 ft 455 kts 140°
2026-05-08 22:27 1.13489 103.91640 36879 ft 456 kts 145°
2026-05-08 22:28 1.09052 103.94496 36874 ft 457 kts 146°
2026-05-08 22:28 1.03699 103.97919 36875 ft 457 kts 145°
2026-05-08 22:29 0.98402 104.01440 36878 ft 457 kts 144°
2026-05-08 22:29 0.93134 104.05005 36882 ft 457 kts 144°
2026-05-08 22:30 0.87856 104.08569 36884 ft 458 kts 144°
2026-05-08 22:30 0.82569 104.12117 36885 ft 458 kts 144°
2026-05-08 22:31 0.77276 104.15665 36887 ft 458 kts 144°
2026-05-08 22:31 0.71991 104.19224 36890 ft 458 kts 144°
2026-05-08 22:32 0.66708 104.22783 36889 ft 458 kts 144°
2026-05-08 22:32 0.61411 104.26339 36888 ft 458 kts 144°
2026-05-08 22:33 0.56126 104.29885 36892 ft 458 kts 144°
2026-05-08 22:33 0.50832 104.33441 36888 ft 458 kts 144°
2026-05-08 22:34 0.45547 104.37000 36891 ft 458 kts 144°
2026-05-08 22:34 0.40268 104.40552 36895 ft 458 kts 144°
2026-05-08 22:35 0.34977 104.44099 36892 ft 458 kts 144°
2026-05-08 22:35 0.29690 104.47649 36896 ft 458 kts 144°
2026-05-08 22:36 0.24406 104.51207 36894 ft 458 kts 144°
2026-05-08 22:36 0.19128 104.54759 36897 ft 458 kts 144°
2026-05-08 22:37 0.13836 104.58314 36890 ft 458 kts 144°
2026-05-08 22:37 0.08552 104.61866 36895 ft 458 kts 144°
2026-05-08 22:38 0.03272 104.65418 36892 ft 458 kts 144°
2026-05-08 22:38 -0.02011 104.68970 36895 ft 454 kts 143°
2026-05-08 22:39 -0.07221 104.72466 36888 ft 450 kts 143°
2026-05-08 22:39 -0.12411 104.75950 36892 ft 449 kts 143°
2026-05-08 22:40 -0.17595 104.79439 36898 ft 449 kts 143°
2026-05-08 22:40 -0.22784 104.82932 36898 ft 449 kts 143°
2026-05-08 22:41 -0.27966 104.86419 36898 ft 449 kts 143°
2026-05-08 22:41 -0.33145 104.89900 36898 ft 448 kts 143°
2026-05-08 22:42 -0.38305 104.93396 36902 ft 448 kts 143°
2026-05-08 22:42 -0.43465 104.96890 36902 ft 448 kts 143°
2026-05-08 22:43 -0.48624 105.00385 36902 ft 448 kts 143°
2026-05-08 22:43 -0.53775 105.03879 36900 ft 448 kts 143°
2026-05-08 22:44 -0.58935 105.07373 36901 ft 448 kts 143°
2026-05-08 22:44 -0.64057 105.10834 36904 ft 447 kts 143°
2026-05-08 22:45 -0.69243 105.14340 36904 ft 447 kts 143°
2026-05-08 22:45 -0.74359 105.17798 36903 ft 447 kts 143°
2026-05-08 22:46 -0.79502 105.21279 36901 ft 446 kts 143°
2026-05-08 22:46 -0.84645 105.24755 36900 ft 446 kts 143°
2026-05-08 22:47 -0.89781 105.28232 36900 ft 446 kts 143°
2026-05-08 22:47 -0.94916 105.31708 36897 ft 446 kts 143°
2026-05-08 22:48 -1.00057 105.35186 36900 ft 446 kts 143°
2026-05-08 22:48 -1.05190 105.38660 36900 ft 446 kts 143°
2026-05-08 22:49 -1.10315 105.42138 36900 ft 446 kts 143°
2026-05-08 22:49 -1.18013 105.47354 36897 ft 445 kts 143°
2026-05-08 22:50 -1.23141 105.50821 36904 ft 445 kts 143°
2026-05-08 22:50 -1.28271 105.54299 36900 ft 445 kts 143°
2026-05-08 22:51 -1.33398 105.57768 36905 ft 445 kts 143°
2026-05-08 22:51 -1.38529 105.61245 36905 ft 446 kts 143°
2026-05-08 22:52 -1.43666 105.64721 36904 ft 446 kts 143°
2026-05-08 22:52 -1.48798 105.68193 36901 ft 446 kts 143°
2026-05-08 22:53 -1.53940 105.71676 36902 ft 446 kts 143°
2026-05-08 22:53 -1.59079 105.75161 36900 ft 447 kts 143°
2026-05-08 22:54 -1.64233 105.78647 36905 ft 447 kts 143°
2026-05-08 22:54 -1.69382 105.82132 36907 ft 447 kts 143°
2026-05-08 22:55 -1.74532 105.85623 36908 ft 448 kts 143°
2026-05-08 22:55 -1.79691 105.89117 36906 ft 448 kts 143°
2026-05-08 22:56 -1.84843 105.92610 36905 ft 448 kts 143°
2026-05-08 22:56 -1.90006 105.96103 36903 ft 448 kts 143°
2026-05-08 22:57 -1.95172 105.99600 36902 ft 448 kts 143°
2026-05-08 22:57 -2.00333 106.03092 36902 ft 449 kts 143°
2026-05-08 22:58 -2.05507 106.06603 36901 ft 449 kts 143°
2026-05-08 22:58 -2.10682 106.10115 36902 ft 450 kts 143°
2026-05-08 22:59 -2.15798 106.13708 36900 ft 448 kts 136°
2026-05-08 22:59 -2.19927 106.18286 36901 ft 444 kts 126°
2026-05-08 23:00 -2.23722 106.23166 36901 ft 444 kts 126°
2026-05-08 23:00 -2.27520 106.28037 36903 ft 445 kts 126°
2026-05-08 23:01 -2.31343 106.32918 36905 ft 445 kts 126°
2026-05-08 23:01 -2.35163 106.37792 36907 ft 446 kts 126°
2026-05-08 23:02 -2.38985 106.42682 36904 ft 446 kts 126°
2026-05-08 23:02 -2.42778 106.47539 36906 ft 446 kts 126°
2026-05-08 23:03 -2.46625 106.52463 36906 ft 446 kts 126°
2026-05-08 23:03 -2.50425 106.57327 36907 ft 446 kts 126°
2026-05-08 23:04 -2.54250 106.62223 36898 ft 447 kts 126°
2026-05-08 23:04 -2.58064 106.67113 36902 ft 446 kts 126°
2026-05-08 23:05 -2.61889 106.72011 36912 ft 446 kts 126°
2026-05-08 23:05 -2.65716 106.76906 36907 ft 446 kts 126°
2026-05-08 23:06 -2.69544 106.81799 36905 ft 447 kts 126°
2026-05-08 23:06 -2.73372 106.86695 36906 ft 447 kts 126°
2026-05-08 23:07 -2.77193 106.91593 36902 ft 447 kts 126°
2026-05-08 23:07 -2.81025 106.96497 36898 ft 447 kts 126°
2026-05-08 23:08 -2.84849 107.01398 36901 ft 447 kts 126°
2026-05-08 23:08 -2.88679 107.06310 36899 ft 448 kts 126°
2026-05-08 23:09 -2.92507 107.11223 36902 ft 448 kts 126°
2026-05-08 23:09 -2.96352 107.16149 36905 ft 449 kts 126°
2026-05-08 23:10 -3.00197 107.21072 36909 ft 450 kts 126°
2026-05-08 23:10 -3.04047 107.26004 36911 ft 450 kts 126°
2026-05-08 23:11 -3.07900 107.30940 36910 ft 450 kts 126°
2026-05-08 23:11 -3.11104 107.35048 36913 ft 450 kts 126°
2026-05-08 23:12 -3.14955 107.39986 36915 ft 450 kts 126°
2026-05-08 23:12 -3.18809 107.44929 36914 ft 451 kts 126°
2026-05-08 23:13 -3.22665 107.49881 36918 ft 451 kts 126°
2026-05-08 23:13 -3.26522 107.54832 36917 ft 451 kts 126°
2026-05-08 23:14 -3.30386 107.59778 36916 ft 451 kts 126°
2026-05-08 23:14 -3.34252 107.64727 36918 ft 452 kts 126°
2026-05-08 23:15 -3.38146 107.69655 36917 ft 452 kts 126°
2026-05-08 23:15 -3.42059 107.74588 36919 ft 452 kts 126°
2026-05-08 23:16 -3.45967 107.79529 36922 ft 452 kts 126°
2026-05-08 23:16 -3.48554 107.82804 36917 ft 452 kts 126°
2026-05-08 23:17 -3.51065 107.86012 36919 ft 452 kts 126°
2026-05-08 23:17 -3.54963 107.90957 36916 ft 453 kts 126°
2026-05-08 23:18 -3.58874 107.95902 36918 ft 453 kts 126°
2026-05-08 23:18 -3.62781 108.00851 36914 ft 453 kts 126°
2026-05-08 23:19 -3.66687 108.05805 36920 ft 453 kts 126°
2026-05-08 23:19 -3.70590 108.10760 36919 ft 453 kts 126°
2026-05-08 23:20 -3.74496 108.15718 36921 ft 453 kts 126°
2026-05-08 23:20 -3.78404 108.20674 36920 ft 454 kts 126°
2026-05-08 23:21 -3.82314 108.25631 36917 ft 454 kts 126°
2026-05-08 23:21 -3.86224 108.30591 36917 ft 454 kts 126°
2026-05-08 23:22 -3.90130 108.35558 36918 ft 454 kts 126°
2026-05-08 23:22 -3.94036 108.40523 36916 ft 454 kts 126°
2026-05-08 23:23 -3.97943 108.45489 36921 ft 454 kts 126°
2026-05-08 23:23 -4.01847 108.50453 36923 ft 453 kts 126°
2026-05-08 23:24 -4.05755 108.55413 36916 ft 453 kts 126°
2026-05-08 23:24 -4.09666 108.60369 36915 ft 454 kts 126°
2026-05-08 23:25 -4.13573 108.65336 36915 ft 454 kts 126°
2026-05-08 23:25 -4.17483 108.70307 36912 ft 454 kts 126°
2026-05-08 23:26 -4.21394 108.75286 36913 ft 455 kts 126°
2026-05-08 23:26 -4.25315 108.80267 36916 ft 455 kts 126°
2026-05-08 23:27 -4.29232 108.85258 36918 ft 456 kts 126°
2026-05-08 23:27 -4.33128 108.90219 36919 ft 456 kts 126°
2026-05-08 23:28 -4.37078 108.95239 36923 ft 457 kts 126°
2026-05-08 23:28 -4.41005 109.00240 36923 ft 457 kts 126°
2026-05-08 23:29 -4.44942 109.05244 36922 ft 457 kts 126°
2026-05-08 23:29 -4.48872 109.10254 36925 ft 457 kts 126°
2026-05-08 23:30 -4.52808 109.15265 36924 ft 457 kts 126°
2026-05-08 23:30 -4.56745 109.20272 36924 ft 457 kts 126°
2026-05-08 23:31 -4.60682 109.25288 36925 ft 457 kts 126°
2026-05-08 23:31 -4.64609 109.30301 36924 ft 458 kts 126°
2026-05-08 23:32 -4.68550 109.35320 36919 ft 458 kts 126°
2026-05-08 23:32 -4.72495 109.40337 36921 ft 458 kts 126°
2026-05-08 23:33 -4.76434 109.45356 36921 ft 458 kts 126°
2026-05-08 23:33 -4.80375 109.50389 36921 ft 459 kts 126°
2026-05-08 23:34 -4.84326 109.55423 36922 ft 460 kts 126°
2026-05-08 23:34 -4.88278 109.60466 36924 ft 460 kts 126°
2026-05-08 23:35 -4.92231 109.65514 36928 ft 460 kts 126°
2026-05-08 23:35 -4.96184 109.70564 36929 ft 460 kts 126°
2026-05-08 23:36 -5.00135 109.75610 36931 ft 460 kts 126°
2026-05-08 23:36 -5.04082 109.80653 36935 ft 460 kts 126°
2026-05-08 23:37 -5.08025 109.85701 36929 ft 460 kts 126°
2026-05-08 23:37 -5.11978 109.90742 36929 ft 459 kts 126°
2026-05-08 23:38 -5.15926 109.95782 36924 ft 459 kts 126°
2026-05-08 23:38 -5.19869 110.00821 36926 ft 459 kts 126°
2026-05-08 23:39 -5.23610 110.05595 36926 ft 459 kts 126°
2026-05-08 23:39 -5.27555 110.10636 36925 ft 459 kts 126°
2026-05-08 23:40 -5.31500 110.15684 36924 ft 460 kts 126°
2026-05-08 23:40 -5.35448 110.20738 36925 ft 460 kts 126°
2026-05-08 23:41 -5.39397 110.25790 36933 ft 460 kts 126°
2026-05-08 23:41 -5.43351 110.30851 36928 ft 461 kts 126°
2026-05-08 23:42 -5.47301 110.35913 36929 ft 461 kts 126°
2026-05-08 23:42 -5.51277 110.40966 36927 ft 461 kts 127°
2026-05-08 23:43 -5.55279 110.45991 36929 ft 461 kts 127°
2026-05-08 23:43 -5.59284 110.51026 36924 ft 461 kts 127°
2026-05-08 23:44 -5.63285 110.56067 36921 ft 462 kts 127°
2026-05-08 23:44 -5.67249 110.61083 36923 ft 462 kts 127°
2026-05-08 23:45 -5.71248 110.66135 36932 ft 462 kts 127°
2026-05-08 23:45 -5.75254 110.71180 36931 ft 462 kts 127°
2026-05-08 23:46 -5.79264 110.76236 36924 ft 463 kts 127°
2026-05-08 23:46 -5.83267 110.81294 36926 ft 463 kts 127°
2026-05-08 23:47 -5.87266 110.86362 36927 ft 463 kts 127°
2026-05-08 23:47 -5.91270 110.91430 36928 ft 463 kts 127°
2026-05-08 23:48 -5.95286 110.96493 36932 ft 463 kts 127°
2026-05-08 23:48 -5.99295 111.01556 36927 ft 463 kts 127°
2026-05-08 23:49 -6.03301 111.06622 36930 ft 463 kts 127°
2026-05-08 23:49 -6.07302 111.11689 36930 ft 463 kts 127°
2026-05-08 23:50 -6.11307 111.16758 36925 ft 463 kts 127°
2026-05-08 23:50 -6.15305 111.21834 36929 ft 463 kts 127°
2026-05-08 23:51 -6.19313 111.26906 36916 ft 463 kts 127°
2026-05-08 23:51 -6.23321 111.31976 36918 ft 463 kts 127°
2026-05-08 23:52 -6.27323 111.37055 36922 ft 463 kts 127°
2026-05-08 23:52 -6.31324 111.42130 36922 ft 463 kts 128°
2026-05-08 23:53 -6.35329 111.47204 36913 ft 463 kts 127°
2026-05-08 23:53 -6.39336 111.52279 36911 ft 463 kts 128°
2026-05-08 23:54 -6.43341 111.57350 36924 ft 463 kts 128°
2026-05-08 23:55 -6.48661 111.64107 36915 ft 463 kts 128°
2026-05-08 23:55 -6.52656 111.69188 36918 ft 463 kts 128°
2026-05-08 23:56 -6.56652 111.74264 36912 ft 463 kts 128°
2026-05-08 23:56 -6.60647 111.79352 36910 ft 463 kts 128°
2026-05-08 23:57 -6.64642 111.84429 36914 ft 463 kts 128°
2026-05-08 23:57 -6.68638 111.89510 36915 ft 463 kts 128°
2026-05-08 23:58 -6.72634 111.94592 36913 ft 463 kts 128°
2026-05-08 23:58 -6.76626 111.99674 36920 ft 463 kts 128°
2026-05-08 23:59 -6.80621 112.04750 36914 ft 462 kts 128°
2026-05-08 23:59 -6.84615 112.09823 36908 ft 462 kts 128°
2026-05-09 00:00 -6.88603 112.14892 36913 ft 462 kts 128°
2026-05-09 00:00 -6.92583 112.19968 36912 ft 462 kts 128°
2026-05-09 00:01 -6.96560 112.25040 36913 ft 462 kts 128°
2026-05-09 00:01 -7.00539 112.30108 36915 ft 461 kts 128°
2026-05-09 00:02 -7.04518 112.35173 36913 ft 461 kts 128°
2026-05-09 00:02 -7.08490 112.40234 36911 ft 460 kts 128°
2026-05-09 00:03 -7.12454 112.45289 36910 ft 460 kts 129°
2026-05-09 00:03 -7.16418 112.50334 36903 ft 459 kts 129°
2026-05-09 00:04 -7.20378 112.55384 36908 ft 459 kts 128°
2026-05-09 00:04 -7.24327 112.60434 36907 ft 458 kts 129°
2026-05-09 00:05 -7.28274 112.65475 36911 ft 458 kts 129°
2026-05-09 00:05 -7.32216 112.70512 36914 ft 458 kts 129°
2026-05-09 00:06 -7.36163 112.75558 36916 ft 458 kts 129°
2026-05-09 00:06 -7.39600 112.80929 36916 ft 459 kts 120°
2026-05-09 00:07 -7.42804 112.86487 36915 ft 459 kts 121°
2026-05-09 00:07 -7.46014 112.92051 36915 ft 459 kts 121°
2026-05-09 00:08 -7.49225 112.97612 36904 ft 459 kts 121°
2026-05-09 00:08 -7.52426 113.03154 36907 ft 460 kts 121°
2026-05-09 00:09 -7.55656 113.08747 36907 ft 460 kts 121°
2026-05-09 00:09 -7.58868 113.14330 36911 ft 460 kts 121°
2026-05-09 00:10 -7.62081 113.19908 36917 ft 461 kts 121°
2026-05-09 00:10 -7.65302 113.25495 36920 ft 461 kts 121°
2026-05-09 00:11 -7.68524 113.31081 36927 ft 461 kts 121°
2026-05-09 00:11 -7.71745 113.36669 36931 ft 461 kts 121°
2026-05-09 00:12 -7.74967 113.42258 36939 ft 461 kts 121°
2026-05-09 00:12 -7.78163 113.47815 36810 ft 461 kts 121°
2026-05-09 00:12 -7.79767 113.50607 36560 ft 460 kts 121°
2026-05-09 00:13 -7.81388 113.53430 36321 ft 459 kts 121°
2026-05-09 00:13 -7.82987 113.56217 36083 ft 460 kts 121°
2026-05-09 00:13 -7.83730 113.57507 35974 ft 460 kts 121°
2026-05-09 00:13 -7.85336 113.60295 35737 ft 460 kts 121°
2026-05-09 00:14 -7.86943 113.63090 35494 ft 459 kts 121°
2026-05-09 00:14 -7.88536 113.65869 35268 ft 457 kts 121°
2026-05-09 00:14 -7.90123 113.68639 34969 ft 454 kts 121°
2026-05-09 00:14 -7.91705 113.71396 34475 ft 453 kts 121°
2026-05-09 00:15 -7.93280 113.74135 33971 ft 451 kts 121°
2026-05-09 00:15 -7.94850 113.76864 33445 ft 449 kts 121°
2026-05-09 00:15 -7.96413 113.79580 32963 ft 445 kts 121°
2026-05-09 00:15 -7.97961 113.82272 32464 ft 442 kts 121°
2026-05-09 00:16 -7.99621 113.84859 31963 ft 438 kts 130°
2026-05-09 00:16 -8.01715 113.87054 31488 ft 432 kts 141°
2026-05-09 00:16 -8.04178 113.88757 31021 ft 427 kts 153°
2026-05-09 00:16 -8.06891 113.89915 30556 ft 423 kts 164°
2026-05-09 00:17 -8.09754 113.90515 30090 ft 419 kts 174°
2026-05-09 00:17 -8.12637 113.90869 29584 ft 415 kts 174°
2026-05-09 00:17 -8.15490 113.91219 29140 ft 411 kts 174°
2026-05-09 00:17 -8.18308 113.91566 28703 ft 406 kts 174°
2026-05-09 00:18 -8.21093 113.91911 28282 ft 401 kts 174°
2026-05-09 00:18 -8.23843 113.92253 27866 ft 396 kts 174°
2026-05-09 00:18 -8.26562 113.92591 27454 ft 392 kts 174°
2026-05-09 00:18 -8.29250 113.92927 27053 ft 387 kts 174°
2026-05-09 00:19 -8.31909 113.93259 26665 ft 383 kts 174°
2026-05-09 00:19 -8.34539 113.93587 26280 ft 378 kts 174°
2026-05-09 00:19 -8.37134 113.93909 25893 ft 374 kts 174°
2026-05-09 00:19 -8.39706 113.94228 25492 ft 371 kts 174°
2026-05-09 00:20 -8.42254 113.94544 25107 ft 367 kts 174°
2026-05-09 00:20 -8.44774 113.94856 24716 ft 363 kts 174°
2026-05-09 00:20 -8.47241 113.95160 24314 ft 360 kts 175°
2026-05-09 00:20 -8.49716 113.95469 23920 ft 357 kts 175°
2026-05-09 00:21 -8.52173 113.95776 23509 ft 354 kts 175°
2026-05-09 00:21 -8.54611 113.96079 23051 ft 351 kts 174°
2026-05-09 00:21 -8.56980 113.96621 22634 ft 349 kts 161°
2026-05-09 00:21 -8.59124 113.97762 22212 ft 349 kts 146°
2026-05-09 00:22 -8.60901 113.99432 21789 ft 351 kts 131°
2026-05-09 00:22 -8.62188 114.01520 21352 ft 352 kts 116°
2026-05-09 00:22 -8.63014 114.03850 20917 ft 352 kts 111°
2026-05-09 00:22 -8.63792 114.06189 20471 ft 350 kts 111°
2026-05-09 00:23 -8.64570 114.08514 20049 ft 349 kts 111°
2026-05-09 00:23 -8.65347 114.10827 19624 ft 347 kts 111°
2026-05-09 00:23 -8.66119 114.13132 19206 ft 345 kts 110°
2026-05-09 00:23 -8.66887 114.15422 18803 ft 343 kts 110°
2026-05-09 00:24 -8.67649 114.17698 18407 ft 341 kts 110°
2026-05-09 00:24 -8.68404 114.19960 17970 ft 339 kts 110°
2026-05-09 00:24 -8.69157 114.22210 17556 ft 336 kts 110°
2026-05-09 00:24 -8.69903 114.24433 17171 ft 332 kts 110°
2026-05-09 00:25 -8.70643 114.26637 16775 ft 329 kts 110°
2026-05-09 00:25 -8.71372 114.28817 16387 ft 327 kts 110°
2026-05-09 00:25 -8.72094 114.30985 15996 ft 324 kts 110°
2026-05-09 00:25 -8.72811 114.33136 15606 ft 322 kts 110°
2026-05-09 00:26 -8.73526 114.35273 15221 ft 320 kts 110°
2026-05-09 00:26 -8.74239 114.37400 14833 ft 318 kts 110°
2026-05-09 00:26 -8.74944 114.39510 14449 ft 317 kts 110°
2026-05-09 00:26 -8.75637 114.41588 14070 ft 315 kts 109°
2026-05-09 00:27 -8.76339 114.43684 13684 ft 314 kts 109°
2026-05-09 00:27 -8.77040 114.45773 13272 ft 312 kts 109°
2026-05-09 00:27 -8.77732 114.47839 12889 ft 309 kts 109°
2026-05-09 00:27 -8.78328 114.49623 12565 ft 307 kts 109°
2026-05-09 00:28 -8.79000 114.51647 12190 ft 304 kts 109°
2026-05-09 00:28 -8.79677 114.53677 11824 ft 302 kts 109°
2026-05-09 00:28 -8.80348 114.55680 11454 ft 300 kts 108°
2026-05-09 00:28 -8.81014 114.57666 11091 ft 298 kts 108°
2026-05-09 00:29 -8.81674 114.59643 10732 ft 296 kts 108°
2026-05-09 00:29 -8.82328 114.61605 10364 ft 294 kts 108°
2026-05-09 00:29 -8.82976 114.63548 10071 ft 290 kts 108°
2026-05-09 00:29 -8.83615 114.65470 9724 ft 288 kts 108°
2026-05-09 00:30 -8.84115 114.67403 9358 ft 284 kts 96°
2026-05-09 00:30 -8.84098 114.69389 9005 ft 280 kts 81°
2026-05-09 00:30 -8.83570 114.71267 8654 ft 277 kts 67°
2026-05-09 00:30 -8.82830 114.73053 8306 ft 275 kts 67°
2026-05-09 00:31 -8.82102 114.74829 7967 ft 272 kts 68°
2026-05-09 00:31 -8.81383 114.76592 7622 ft 270 kts 68°
2026-05-09 00:31 -8.80668 114.78345 7275 ft 269 kts 68°
2026-05-09 00:31 -8.79957 114.80086 6936 ft 267 kts 68°
2026-05-09 00:32 -8.79248 114.81816 6596 ft 266 kts 68°
2026-05-09 00:32 -8.78542 114.83540 6247 ft 265 kts 68°
2026-05-09 00:32 -8.77839 114.85255 5893 ft 264 kts 68°
2026-05-09 00:32 -8.77139 114.86964 5539 ft 262 kts 69°
2026-05-09 00:33 -8.76444 114.88657 5207 ft 260 kts 68°
2026-05-09 00:33 -8.75776 114.90292 4877 ft 257 kts 70°
2026-05-09 00:33 -8.75447 114.92047 4541 ft 253 kts 90°
2026-05-09 00:33 -8.75469 114.93813 4208 ft 251 kts 91°
2026-05-09 00:34 -8.75485 114.95556 3873 ft 243 kts 91°
2026-05-09 00:34 -8.75496 114.97201 3576 ft 225 kts 91°
2026-05-09 00:34 -8.75506 114.98716 3293 ft 207 kts 91°
2026-05-09 00:34 -8.75499 115.00107 3026 ft 192 kts 89°
2026-05-09 00:35 -8.75452 115.01422 2783 ft 183 kts 89°
2026-05-09 00:35 -8.75398 115.02682 2534 ft 179 kts 88°
2026-05-09 00:35 -8.75346 115.03916 2299 ft 173 kts 88°
2026-05-09 00:35 -8.75296 115.05100 2082 ft 162 kts 88°
2026-05-09 00:36 -8.75249 115.06212 1858 ft 156 kts 88°
2026-05-09 00:36 -8.75206 115.07287 1642 ft 147 kts 89°
2026-05-09 00:36 -8.75166 115.08283 1453 ft 139 kts 87°
2026-05-09 00:36 -8.75127 115.09248 1267 ft 138 kts 88°
2026-05-09 00:37 -8.75091 115.10150 1088 ft 138 kts 89°
2026-05-09 00:37 -8.75054 115.11105 911 ft 137 kts 89°
2026-05-09 00:37 -8.75017 115.12048 746 ft 137 kts 89°
2026-05-09 00:37 -8.74982 115.13024 587 ft 141 kts 88°
2026-05-09 00:38 -8.74950 115.13997 410 ft 138 kts 89°
2026-05-09 00:38 -8.74914 115.14949 181 ft 136 kts 90°
2026-05-09 00:38 -8.74876 115.15905 43 ft 130 kts 90°
2026-05-09 00:38 -8.74846 115.16687 28 ft 88 kts 89°
2026-05-09 00:39 -8.74826 115.17145 28 ft 48 kts 87°
2026-05-09 00:39 -8.74770 115.17312 28 ft 20 kts 12°
2026-05-09 00:39 -8.74703 115.17313 31 ft 8 kts 352°
2026-05-09 00:39 -8.74662 115.17286 31 ft 7 kts 304°
2026-05-09 00:40 -8.74657 115.17234 32 ft 9 kts 268°
2026-05-09 00:40 -8.74660 115.17166 32 ft 10 kts 268°
2026-05-09 00:40 -8.74664 115.17089 32 ft 6 kts 267°
2026-05-09 00:41 -8.74639 115.17071 32 ft 4 kts 354°
2026-05-09 00:41 -8.74599 115.17069 33 ft 8 kts 358°
2026-05-09 00:41 -8.74547 115.17067 33 ft 4 kts 358°
2026-05-09 00:41 -8.74530 115.17066 33 ft 2 kts 358°
2026-05-09 00:42 -8.74529 115.17066 33 ft 0 kts 358°